Data No.,UTC Date,UTC Time,Latitude,Longitude,Course(deg),Temp(degC),Sal(psu)
21,2007/8/31,23:45:00,34-21.2100N,137-03.5800E,180,25.26,32.9184
22,2007/8/31,23:46:00,34-20.9600N,137-03.5700E,182,25.467,32.9502
23,2007/8/31,23:47:00,34-20.7300N,137-03.5500E,184,25.525,33.0049
24,2007/8/31,23:48:00,34-20.4900N,137-03.5300E,184,25.587,33.0377
25,2007/8/31,23:49:00,34-20.2600N,137-03.5000E,184,25.511,33.0549
26,2007/8/31,23:50:00,34-20.0200N,137-03.4800E,185,25.814,33.0378
27,2007/8/31,23:51:00,34-19.8000N,137-03.4500E,184,26.335,33.0843
28,2007/8/31,23:52:00,34-19.5600N,137-03.4300E,185,26.668,33.2802
29,2007/8/31,23:53:00,34-19.3400N,137-03.4000E,186,27.016,33.4287
30,2007/8/31,23:54:00,34-19.1100N,137-03.3700E,186,27.317,33.5434
31,2007/8/31,23:55:00,34-18.8900N,137-03.3300E,186,27.717,33.6294
32,2007/8/31,23:56:00,34-18.6500N,137-03.3000E,187,27.987,33.6938
33,2007/8/31,23:57:00,34-18.4300N,137-03.2600E,189,28.051,33.7331
34,2007/8/31,23:58:00,34-18.2100N,137-03.1900E,195,28.129,33.7525
35,2007/8/31,23:59:00,34-18.0000N,137-03.1000E,198,28.175,33.779
36,2007/9/1,0:00:00,34-17.7900N,137-03.0200E,198,28.185,33.7637
39,2007/9/1,0:01:00,34-17.5600N,137-02.9200E,198,28.175,33.7896
40,2007/9/1,0:02:00,34-17.3400N,137-02.8400E,198,28.166,33.7829
41,2007/9/1,0:03:00,34-17.1300N,137-02.7500E,199,28.178,33.7842
42,2007/9/1,0:04:00,34-16.9100N,137-02.6700E,196,28.175,33.7824
43,2007/9/1,0:05:00,34-16.6900N,137-02.6000E,193,28.142,33.7831
44,2007/9/1,0:06:00,34-16.4700N,137-02.5400E,193,28.121,33.7844
45,2007/9/1,0:07:00,34-16.2500N,137-02.4700E,193,28.097,33.7891
46,2007/9/1,0:08:00,34-16.0300N,137-02.4100E,193,28.079,33.7865
47,2007/9/1,0:09:00,34-15.8000N,137-02.3400E,193,28.061,33.7813
48,2007/9/1,0:10:00,34-15.5800N,137-02.2700E,194,28.047,33.7828
49,2007/9/1,0:11:00,34-15.3500N,137-02.2100E,192,28.066,33.7804
50,2007/9/1,0:12:00,34-15.1200N,137-02.1500E,190,28.074,33.7911
51,2007/9/1,0:13:00,34-14.9000N,137-02.1000E,189,28.078,33.8087
52,2007/9/1,0:14:00,34-14.6600N,137-02.0600E,188,28.051,33.8217
53,2007/9/1,0:15:00,34-14.4400N,137-02.0200E,188,28.014,33.8286
54,2007/9/1,0:16:00,34-14.2000N,137-01.9800E,191,28.002,33.8242
55,2007/9/1,0:17:00,34-13.9800N,137-01.8900E,201,28.005,33.8209
56,2007/9/1,0:18:00,34-13.7500N,137-01.8100E,194,28.005,33.8242
57,2007/9/1,0:19:00,34-13.5200N,137-01.7400E,194,28.024,33.8393
58,2007/9/1,0:20:00,34-13.2900N,137-01.6700E,194,28.032,33.861
59,2007/9/1,0:21:00,34-13.0600N,137-01.6000E,191,28.04,33.8882
60,2007/9/1,0:22:00,34-12.8300N,137-01.5600E,189,28.081,33.9126
61,2007/9/1,0:23:00,34-12.6000N,137-01.5200E,185,28.102,33.9238
62,2007/9/1,0:24:00,34-12.3600N,137-01.5000E,183,28.12,33.9346
63,2007/9/1,0:25:00,34-12.1300N,137-01.4800E,181,28.145,33.9312
64,2007/9/1,0:26:00,34-11.9000N,137-01.4800E,179,28.179,33.9203
65,2007/9/1,0:27:00,34-11.6600N,137-01.4800E,179,28.204,33.9195
66,2007/9/1,0:28:00,34-11.4200N,137-01.4900E,178,28.189,33.9251
67,2007/9/1,0:29:00,34-11.1900N,137-01.4900E,178,28.199,33.9325
68,2007/9/1,0:30:00,34-10.9500N,137-01.5000E,178,28.211,33.9522
69,2007/9/1,0:31:00,34-10.7100N,137-01.5000E,178,28.216,33.9799
70,2007/9/1,0:32:00,34-10.4800N,137-01.5100E,178,28.219,34.005
71,2007/9/1,0:33:00,34-10.2400N,137-01.5200E,177,28.177,34.0209
72,2007/9/1,0:34:00,34-10.0100N,137-01.5400E,176,28.136,34.04
73,2007/9/1,0:35:00,34-09.7800N,137-01.5500E,176,28.133,34.0636
74,2007/9/1,0:36:00,34-09.5400N,137-01.5700E,176,28.124,34.066
75,2007/9/1,0:37:00,34-09.3000N,137-01.5900E,176,28.019,34.0799
76,2007/9/1,0:38:00,34-09.0700N,137-01.6100E,176,28.013,33.9829
77,2007/9/1,0:39:00,34-08.8300N,137-01.6300E,176,28.012,33.9947
78,2007/9/1,0:40:00,34-08.5800N,137-01.6400E,176,28.021,33.9667
79,2007/9/1,0:41:00,34-08.3500N,137-01.6600E,176,28.019,33.9719
80,2007/9/1,0:42:00,34-08.1100N,137-01.6800E,175,27.985,33.998
81,2007/9/1,0:43:00,34-07.8800N,137-01.7100E,175,28.01,34.0375
82,2007/9/1,0:44:00,34-07.6500N,137-01.7300E,174,28.047,34.0195
83,2007/9/1,0:45:00,34-07.4200N,137-01.7600E,174,28.058,34.0261
84,2007/9/1,0:46:00,34-07.1800N,137-01.7900E,173,28.081,34.0226
85,2007/9/1,0:47:00,34-06.9500N,137-01.8200E,173,28.111,34.0267
86,2007/9/1,0:48:00,34-06.7200N,137-01.8500E,173,28.119,34.0515
87,2007/9/1,0:49:00,34-06.4900N,137-01.8900E,173,28.132,34.0665
88,2007/9/1,0:50:00,34-06.2500N,137-01.9200E,173,28.147,34.084
89,2007/9/1,0:51:00,34-06.0200N,137-01.9500E,174,28.159,34.1028
90,2007/9/1,0:52:00,34-05.7900N,137-01.9700E,173,28.167,34.1309
91,2007/9/1,0:53:00,34-05.5500N,137-02.0100E,173,28.155,34.1523
92,2007/9/1,0:54:00,34-05.3200N,137-02.0400E,172,28.142,34.168
93,2007/9/1,0:55:00,34-05.0900N,137-02.0800E,172,28.138,34.193
94,2007/9/1,0:56:00,34-04.8600N,137-02.1200E,172,28.11,34.2018
95,2007/9/1,0:57:00,34-04.6200N,137-02.1600E,172,28.101,34.196
96,2007/9/1,0:58:00,34-04.3900N,137-02.1900E,172,28.094,34.2015
97,2007/9/1,0:59:00,34-04.1500N,137-02.2300E,172,28.099,34.2019
98,2007/9/1,1:00:00,34-03.9200N,137-02.2700E,172,28.105,34.2159
99,2007/9/1,1:01:00,34-03.6900N,137-02.3100E,172,28.117,34.215
100,2007/9/1,1:02:00,34-03.4300N,137-02.3500E,172,28.131,34.217
101,2007/9/1,1:03:00,34-03.2000N,137-02.3900E,172,28.139,34.2135
102,2007/9/1,1:04:00,34-02.9800N,137-02.4300E,172,28.144,34.2007
103,2007/9/1,1:05:00,34-02.7400N,137-02.4600E,172,28.121,34.1817
104,2007/9/1,1:06:00,34-02.5100N,137-02.5000E,171,28.131,34.1579
105,2007/9/1,1:07:00,34-02.2800N,137-02.5400E,171,28.145,34.1537
106,2007/9/1,1:08:00,34-02.0500N,137-02.5800E,172,28.155,34.1423
107,2007/9/1,1:09:00,34-01.8100N,137-02.6200E,172,28.169,34.1316
108,2007/9/1,1:10:00,34-01.5800N,137-02.6500E,173,28.176,34.1186
109,2007/9/1,1:11:00,34-01.3500N,137-02.6900E,172,28.186,34.1246
110,2007/9/1,1:12:00,34-01.1200N,137-02.7300E,172,28.199,34.1195
111,2007/9/1,1:13:00,34-00.8900N,137-02.7600E,172,28.195,34.1122
112,2007/9/1,1:14:00,34-00.6600N,137-02.8000E,173,28.21,34.1111
113,2007/9/1,1:15:00,34-00.4400N,137-02.8300E,172,28.23,34.1111
114,2007/9/1,1:16:00,34-00.2000N,137-02.8600E,172,28.248,34.1062
115,2007/9/1,1:17:00,33-59.9700N,137-02.9000E,173,28.249,34.1035
116,2007/9/1,1:18:00,33-59.7500N,137-02.9300E,173,28.255,34.1045
117,2007/9/1,1:19:00,33-59.5200N,137-02.9600E,173,28.252,34.1063
118,2007/9/1,1:20:00,33-59.3000N,137-02.9900E,173,28.245,34.1015
119,2007/9/1,1:21:00,33-59.0700N,137-03.0200E,173,28.242,34.1108
120,2007/9/1,1:22:00,33-58.8400N,137-03.0500E,176,28.245,34.1139
121,2007/9/1,1:23:00,33-58.6100N,137-03.0500E,182,28.259,34.1154
122,2007/9/1,1:24:00,33-58.3600N,137-03.0300E,183,28.26,34.1151
123,2007/9/1,1:25:00,33-58.1400N,137-02.9800E,195,28.261,34.1215
124,2007/9/1,1:26:00,33-57.9200N,137-02.8900E,200,28.268,34.1184
125,2007/9/1,1:27:00,33-57.7100N,137-02.7900E,201,28.264,34.1209
126,2007/9/1,1:28:00,33-57.5000N,137-02.6800E,202,28.252,34.1275
127,2007/9/1,1:29:00,33-57.2800N,137-02.5800E,202,28.249,34.1292
128,2007/9/1,1:30:00,33-57.0700N,137-02.4700E,202,28.251,34.1291
129,2007/9/1,1:31:00,33-56.8600N,137-02.3700E,202,28.245,34.1278
130,2007/9/1,1:32:00,33-56.6500N,137-02.2600E,202,28.239,34.1217
131,2007/9/1,1:33:00,33-56.4400N,137-02.1500E,203,28.222,34.1242
132,2007/9/1,1:34:00,33-56.2300N,137-02.0400E,203,28.213,34.1207
133,2007/9/1,1:35:00,33-56.0100N,137-01.9300E,203,28.209,34.12
134,2007/9/1,1:36:00,33-55.8000N,137-01.8200E,202,28.205,34.1167
135,2007/9/1,1:37:00,33-55.5900N,137-01.7200E,203,28.2,34.0965
136,2007/9/1,1:38:00,33-55.3800N,137-01.6100E,202,28.204,34.1141
137,2007/9/1,1:39:00,33-55.1700N,137-01.5000E,202,28.202,34.1076
138,2007/9/1,1:40:00,33-54.9600N,137-01.3900E,202,28.199,34.1058
139,2007/9/1,1:41:00,33-54.7500N,137-01.2900E,201,28.201,34.0849
140,2007/9/1,1:42:00,33-54.5300N,137-01.2000E,200,28.203,34.1093
141,2007/9/1,1:43:00,33-54.3200N,137-01.1000E,200,28.222,34.1097
142,2007/9/1,1:44:00,33-54.1100N,137-01.0100E,200,28.23,34.1045
143,2007/9/1,1:45:00,33-53.8900N,137-00.9200E,199,28.233,34.0999
144,2007/9/1,1:46:00,33-53.6800N,137-00.8200E,200,28.248,34.1013
145,2007/9/1,1:47:00,33-53.4400N,137-00.7200E,200,28.248,34.0977
146,2007/9/1,1:48:00,33-53.2300N,137-00.6200E,200,28.238,34.0951
147,2007/9/1,1:49:00,33-53.0200N,137-00.5300E,200,28.237,34.0906
148,2007/9/1,1:50:00,33-52.8000N,137-00.4300E,200,28.233,34.0837
149,2007/9/1,1:51:00,33-52.5900N,137-00.3300E,200,28.236,34.0861
150,2007/9/1,1:52:00,33-52.3700N,137-00.2300E,200,28.239,34.0833
151,2007/9/1,1:53:00,33-52.1600N,137-00.1400E,200,28.22,---
152,2007/9/1,1:54:00,33-51.9500N,137-00.0400E,201,28.238,34.0721
153,2007/9/1,1:55:00,33-51.7300N,136-59.9400E,200,28.237,34.0712
154,2007/9/1,1:56:00,33-51.5200N,136-59.8500E,199,28.248,34.071
155,2007/9/1,1:57:00,33-51.3000N,136-59.7600E,199,28.25,34.0653
156,2007/9/1,1:58:00,33-51.0800N,136-59.6600E,199,28.218,34.068
157,2007/9/1,1:59:00,33-50.8700N,136-59.5700E,199,28.207,34.0548
158,2007/9/1,2:00:00,33-50.6600N,136-59.4800E,199,28.197,34.0517
159,2007/9/1,2:01:00,33-50.4400N,136-59.3900E,199,28.206,34.046
160,2007/9/1,2:02:00,33-50.2200N,136-59.3000E,199,28.212,34.0401
161,2007/9/1,2:03:00,33-50.0000N,136-59.2000E,199,28.217,34.04
162,2007/9/1,2:04:00,33-49.7900N,136-59.1100E,199,28.228,34.0381
163,2007/9/1,2:05:00,33-49.5800N,136-59.0200E,199,28.226,34.0407
164,2007/9/1,2:06:00,33-49.3600N,136-58.9300E,199,28.227,34.0298
165,2007/9/1,2:07:00,33-49.1500N,136-58.8300E,199,28.225,34.0385
166,2007/9/1,2:08:00,33-48.9300N,136-58.7400E,200,28.217,34.0384
167,2007/9/1,2:09:00,33-48.6900N,136-58.6300E,200,28.217,34.0433
168,2007/9/1,2:10:00,33-48.4800N,136-58.5400E,200,28.219,34.0251
169,2007/9/1,2:11:00,33-48.2600N,136-58.4400E,200,28.216,34.0436
170,2007/9/1,2:12:00,33-48.0400N,136-58.3400E,200,28.217,34.0459
171,2007/9/1,2:13:00,33-47.8200N,136-58.2500E,200,28.219,34.0413
172,2007/9/1,2:14:00,33-47.6000N,136-58.1500E,200,28.219,34.0521
173,2007/9/1,2:15:00,33-47.3700N,136-58.0500E,200,28.213,34.0616
174,2007/9/1,2:16:00,33-47.1600N,136-57.9500E,200,28.205,34.0509
175,2007/9/1,2:17:00,33-46.9400N,136-57.8600E,199,28.209,34.0549
176,2007/9/1,2:18:00,33-46.7200N,136-57.7700E,199,28.224,34.0526
177,2007/9/1,2:19:00,33-46.4900N,136-57.6700E,199,28.24,34.0522
178,2007/9/1,2:20:00,33-46.2700N,136-57.5700E,199,28.252,34.0652
179,2007/9/1,2:21:00,33-46.0500N,136-57.4800E,199,28.258,34.0703
180,2007/9/1,2:22:00,33-45.8300N,136-57.3800E,199,28.295,34.0789
181,2007/9/1,2:23:00,33-45.6000N,136-57.2900E,199,28.32,34.0881
182,2007/9/1,2:24:00,33-45.3700N,136-57.2000E,199,28.328,34.0896
183,2007/9/1,2:25:00,33-45.1500N,136-57.1000E,198,28.321,34.0849
184,2007/9/1,2:26:00,33-44.9200N,136-57.0100E,198,28.311,34.0897
185,2007/9/1,2:27:00,33-44.7000N,136-56.9200E,199,28.302,34.0873
186,2007/9/1,2:28:00,33-44.4800N,136-56.8200E,198,28.297,34.0861
187,2007/9/1,2:29:00,33-44.2500N,136-56.7300E,198,28.281,34.0872
188,2007/9/1,2:30:00,33-44.0300N,136-56.6400E,198,28.286,34.0861
189,2007/9/1,2:31:00,33-43.7800N,136-56.5400E,199,28.282,34.0838
190,2007/9/1,2:32:00,33-43.5500N,136-56.4500E,199,28.3,34.0795
191,2007/9/1,2:33:00,33-43.3200N,136-56.3500E,199,28.319,34.0663
192,2007/9/1,2:34:00,33-43.1000N,136-56.2600E,199,28.337,34.0609
193,2007/9/1,2:35:00,33-42.8700N,136-56.1600E,199,28.364,34.0618
194,2007/9/1,2:36:00,33-42.6400N,136-56.0700E,199,28.383,34.065
195,2007/9/1,2:37:00,33-42.4200N,136-55.9700E,199,28.394,34.0646
196,2007/9/1,2:38:00,33-42.1800N,136-55.8700E,199,28.379,34.0651
197,2007/9/1,2:39:00,33-41.9600N,136-55.7800E,199,28.372,34.0707
198,2007/9/1,2:40:00,33-41.7300N,136-55.6800E,199,28.364,34.0697
199,2007/9/1,2:41:00,33-41.5000N,136-55.5800E,199,28.372,34.0578
200,2007/9/1,2:42:00,33-41.2700N,136-55.4900E,199,28.369,34.0841
201,2007/9/1,2:43:00,33-41.0400N,136-55.3900E,199,28.358,34.0965
202,2007/9/1,2:44:00,33-40.8100N,136-55.2900E,199,28.392,34.1023
203,2007/9/1,2:45:00,33-40.5800N,136-55.2000E,198,28.42,34.1141
204,2007/9/1,2:46:00,33-40.3400N,136-55.1000E,200,28.439,34.1332
205,2007/9/1,2:47:00,33-40.1300N,136-54.9500E,217,28.46,34.1333
206,2007/9/1,2:48:00,33-39.9600N,136-54.7600E,223,28.475,34.1275
207,2007/9/1,2:49:00,33-39.8000N,136-54.5400E,231,28.497,34.1259
208,2007/9/1,2:50:00,33-39.6500N,136-54.3000E,233,28.478,34.1285
209,2007/9/1,2:51:00,33-39.5100N,136-54.0600E,234,28.454,34.1167
210,2007/9/1,2:52:00,33-39.3600N,136-53.8200E,233,28.467,34.1085
211,2007/9/1,2:53:00,33-39.2100N,136-53.5700E,233,28.475,34.111
212,2007/9/1,2:54:00,33-39.0600N,136-53.3200E,234,28.479,34.1034
213,2007/9/1,2:55:00,33-38.9100N,136-53.1000E,227,28.471,34.1182
214,2007/9/1,2:56:00,33-38.7300N,136-52.9100E,215,28.46,34.1203
215,2007/9/1,2:57:00,33-38.5300N,136-52.7900E,205,28.449,34.1157
216,2007/9/1,2:58:00,33-38.3200N,136-52.6800E,202,28.455,34.1079
217,2007/9/1,2:59:00,33-38.1000N,136-52.5800E,199,28.436,34.1209
218,2007/9/1,3:00:00,33-37.8800N,136-52.4900E,198,28.442,34.0813
219,2007/9/1,3:01:00,33-37.6500N,136-52.4000E,198,28.442,34.1284
220,2007/9/1,3:02:00,33-37.4300N,136-52.3100E,197,28.411,34.1299
221,2007/9/1,3:03:00,33-37.2000N,136-52.2300E,197,28.41,34.137
222,2007/9/1,3:04:00,33-36.9800N,136-52.1400E,197,28.413,34.1413
223,2007/9/1,3:05:00,33-36.7500N,136-52.0600E,197,28.423,34.1433
224,2007/9/1,3:06:00,33-36.5300N,136-51.9700E,197,28.451,34.145
225,2007/9/1,3:07:00,33-36.3000N,136-51.8800E,197,28.473,34.1466
226,2007/9/1,3:08:00,33-36.0700N,136-51.8000E,197,28.476,34.1489
227,2007/9/1,3:09:00,33-35.8500N,136-51.7100E,197,28.5,34.1481
228,2007/9/1,3:10:00,33-35.6200N,136-51.6300E,197,28.479,34.1323
229,2007/9/1,3:11:00,33-35.3900N,136-51.5400E,197,28.46,34.1119
230,2007/9/1,3:12:00,33-35.1600N,136-51.4500E,197,28.448,34.0896
231,2007/9/1,3:13:00,33-34.9300N,136-51.3600E,197,28.43,34.0739
232,2007/9/1,3:14:00,33-34.7000N,136-51.2700E,197,28.401,34.0578
233,2007/9/1,3:15:00,33-34.4500N,136-51.1800E,197,28.311,34.0311
234,2007/9/1,3:16:00,33-34.2200N,136-51.0900E,197,28.261,33.9989
235,2007/9/1,3:17:00,33-33.9900N,136-51.0000E,197,28.318,33.9663
236,2007/9/1,3:18:00,33-33.7600N,136-50.9100E,198,28.358,33.8915
237,2007/9/1,3:19:00,33-33.5300N,136-50.8200E,198,28.393,33.8927
238,2007/9/1,3:20:00,33-33.3000N,136-50.7300E,198,28.454,33.8837
239,2007/9/1,3:21:00,33-33.0600N,136-50.6300E,198,28.509,33.885
240,2007/9/1,3:22:00,33-32.8400N,136-50.5400E,198,28.534,33.87
241,2007/9/1,3:23:00,33-32.6100N,136-50.4500E,199,28.575,33.8579
242,2007/9/1,3:24:00,33-32.3800N,136-50.3500E,198,28.582,33.8364
243,2007/9/1,3:25:00,33-32.1400N,136-50.2600E,198,28.58,33.8136
244,2007/9/1,3:26:00,33-31.9100N,136-50.1700E,197,28.54,33.8147
245,2007/9/1,3:27:00,33-31.6900N,136-50.0800E,198,28.526,33.8156
246,2007/9/1,3:28:00,33-31.4600N,136-49.9900E,198,28.488,33.8015
247,2007/9/1,3:29:00,33-31.2300N,136-49.9000E,198,28.504,33.8082
248,2007/9/1,3:30:00,33-31.0100N,136-49.8000E,199,28.546,33.8091
249,2007/9/1,3:31:00,33-30.7800N,136-49.7100E,199,28.531,33.8162
250,2007/9/1,3:32:00,33-30.5600N,136-49.6100E,199,28.553,33.8127
251,2007/9/1,3:33:00,33-30.3300N,136-49.5200E,199,28.544,33.8182
252,2007/9/1,3:34:00,33-30.1100N,136-49.4300E,199,28.493,33.8264
253,2007/9/1,3:35:00,33-29.8800N,136-49.3300E,198,28.503,33.8557
254,2007/9/1,3:36:00,33-29.6300N,136-49.2300E,198,28.499,33.889
255,2007/9/1,3:37:00,33-29.4000N,136-49.1500E,198,28.497,33.8926
256,2007/9/1,3:38:00,33-29.1700N,136-49.0500E,198,28.501,---
257,2007/9/1,3:39:00,33-28.9400N,136-48.9600E,198,28.509,33.8795
258,2007/9/1,3:40:00,33-28.7200N,136-48.8800E,198,28.489,33.8763
259,2007/9/1,3:41:00,33-28.4800N,136-48.7900E,197,28.476,33.8723
260,2007/9/1,3:42:00,33-28.2500N,136-48.7000E,197,28.48,33.879
261,2007/9/1,3:43:00,33-28.0100N,136-48.6100E,197,28.496,33.8743
262,2007/9/1,3:44:00,33-27.7900N,136-48.5300E,197,28.483,33.8783
263,2007/9/1,3:45:00,33-27.5500N,136-48.4400E,197,28.485,33.8761
264,2007/9/1,3:46:00,33-27.3100N,136-48.3500E,196,28.43,33.8744
265,2007/9/1,3:47:00,33-27.0800N,136-48.2700E,196,28.371,33.8686
266,2007/9/1,3:48:00,33-26.8400N,136-48.1900E,196,28.358,33.8712
267,2007/9/1,3:49:00,33-26.6100N,136-48.1100E,196,28.372,33.8718
268,2007/9/1,3:50:00,33-26.3700N,136-48.0300E,196,28.378,33.875
269,2007/9/1,3:51:00,33-26.1400N,136-47.9400E,195,28.361,33.8707
270,2007/9/1,3:52:00,33-25.9100N,136-47.8700E,195,28.36,33.8647
271,2007/9/1,3:53:00,33-25.6700N,136-47.7800E,196,28.378,33.8713
272,2007/9/1,3:54:00,33-25.4300N,136-47.7000E,196,28.421,33.8704
273,2007/9/1,3:55:00,33-25.2000N,136-47.6300E,195,28.418,33.8635
274,2007/9/1,3:56:00,33-24.9600N,136-47.5400E,196,28.407,33.8559
275,2007/9/1,3:57:00,33-24.7300N,136-47.4600E,195,28.408,33.8503
276,2007/9/1,3:58:00,33-24.4700N,136-47.3800E,196,28.413,33.8436
277,2007/9/1,3:59:00,33-24.2400N,136-47.2900E,196,28.468,33.8448
278,2007/9/1,4:00:00,33-24.0000N,136-47.2100E,196,28.47,33.8326
279,2007/9/1,4:01:00,33-23.7600N,136-47.1300E,196,28.466,33.8283
280,2007/9/1,4:02:00,33-23.5200N,136-47.0500E,195,28.476,33.8187
281,2007/9/1,4:03:00,33-23.2900N,136-46.9700E,195,28.449,33.8201
282,2007/9/1,4:04:00,33-23.0500N,136-46.8900E,195,28.439,33.8153
283,2007/9/1,4:05:00,33-22.8100N,136-46.8100E,196,28.442,33.8077
284,2007/9/1,4:06:00,33-22.5700N,136-46.7200E,196,28.45,33.8073
285,2007/9/1,4:07:00,33-22.3400N,136-46.6400E,196,28.459,33.8063
286,2007/9/1,4:08:00,33-22.1000N,136-46.5600E,195,28.433,33.8052
287,2007/9/1,4:09:00,33-21.8700N,136-46.4800E,196,28.425,33.7976
288,2007/9/1,4:10:00,33-21.6300N,136-46.4000E,195,28.446,33.8029
289,2007/9/1,4:11:00,33-21.4000N,136-46.3200E,196,28.427,33.7995
290,2007/9/1,4:12:00,33-21.1700N,136-46.2400E,196,28.45,33.8022
291,2007/9/1,4:13:00,33-20.9300N,136-46.1600E,195,28.463,33.8033
292,2007/9/1,4:14:00,33-20.7000N,136-46.0800E,195,28.512,33.8147
293,2007/9/1,4:15:00,33-20.4600N,136-46.0100E,195,28.514,33.8174
294,2007/9/1,4:16:00,33-20.2300N,136-45.9300E,195,28.528,33.8137
295,2007/9/1,4:17:00,33-20.0000N,136-45.8600E,194,28.506,33.8146
296,2007/9/1,4:18:00,33-19.7500N,136-45.7800E,194,28.464,33.7985
297,2007/9/1,4:19:00,33-19.5200N,136-45.7100E,194,28.456,33.8072
298,2007/9/1,4:20:00,33-19.2700N,136-45.6300E,195,28.457,33.8168
299,2007/9/1,4:21:00,33-19.0300N,136-45.5500E,195,28.456,33.8201
300,2007/9/1,4:22:00,33-18.7900N,136-45.4700E,195,28.469,33.8289
301,2007/9/1,4:23:00,33-18.5500N,136-45.4000E,195,28.48,33.8396
302,2007/9/1,4:24:00,33-18.3100N,136-45.3200E,194,28.383,33.8502
303,2007/9/1,4:25:00,33-18.0700N,136-45.2500E,194,28.36,33.8038
304,2007/9/1,4:26:00,33-17.8300N,136-45.1800E,194,28.345,33.7756
305,2007/9/1,4:27:00,33-17.5900N,136-45.1000E,194,28.315,33.7797
306,2007/9/1,4:28:00,33-17.3400N,136-45.0300E,194,28.301,33.7752
307,2007/9/1,4:29:00,33-17.1000N,136-44.9500E,194,28.288,33.7686
308,2007/9/1,4:30:00,33-16.8600N,136-44.8800E,194,28.287,33.7793
309,2007/9/1,4:31:00,33-16.6100N,136-44.8100E,194,28.286,33.7791
310,2007/9/1,4:32:00,33-16.3700N,136-44.7300E,193,28.343,33.7839
311,2007/9/1,4:33:00,33-16.1300N,136-44.6700E,193,28.348,33.7706
312,2007/9/1,4:34:00,33-15.8800N,136-44.6000E,193,28.274,33.7881
313,2007/9/1,4:35:00,33-15.6400N,136-44.5300E,193,28.191,33.8141
314,2007/9/1,4:36:00,33-15.4000N,136-44.4600E,193,28.155,33.8315
315,2007/9/1,4:37:00,33-15.1500N,136-44.3900E,192,28.136,33.8378
316,2007/9/1,4:38:00,33-14.9100N,136-44.3200E,192,27.889,33.8302
317,2007/9/1,4:39:00,33-14.6600N,136-44.2600E,192,27.586,---
318,2007/9/1,4:40:00,33-14.4100N,136-44.2000E,191,27.343,33.7094
319,2007/9/1,4:41:00,33-14.1400N,136-44.1300E,191,27.199,33.6979
320,2007/9/1,4:42:00,33-13.9000N,136-44.0800E,190,26.983,33.6954
321,2007/9/1,4:43:00,33-13.6500N,136-44.0300E,188,26.777,33.7137
322,2007/9/1,4:44:00,33-13.3900N,136-44.0000E,184,26.94,33.7222
323,2007/9/1,4:45:00,33-13.1400N,136-43.9800E,182,28.425,33.7392
324,2007/9/1,4:46:00,33-12.8800N,136-43.9700E,181,29.03,33.7671
325,2007/9/1,4:47:00,33-12.6300N,136-43.9700E,181,29.103,33.8763
326,2007/9/1,4:48:00,33-12.3700N,136-43.9600E,181,29.268,33.8683
327,2007/9/1,4:49:00,33-12.1100N,136-43.9500E,180,29.357,---
328,2007/9/1,4:50:00,33-11.8500N,136-43.9500E,180,29.37,33.9926
329,2007/9/1,4:51:00,33-11.5900N,136-43.9500E,179,29.406,34.0267
330,2007/9/1,4:52:00,33-11.3400N,136-43.9400E,182,29.429,34.0424
331,2007/9/1,4:53:00,33-11.0800N,136-43.9300E,182,29.375,---
332,2007/9/1,4:54:00,33-10.8200N,136-43.9100E,183,29.349,34.0448
333,2007/9/1,4:55:00,33-10.5700N,136-43.8900E,183,29.33,34.0587
334,2007/9/1,4:56:00,33-10.3100N,136-43.8800E,181,29.236,34.091
335,2007/9/1,4:57:00,33-10.0600N,136-43.8700E,181,29.231,34.1176
336,2007/9/1,4:58:00,33-09.8000N,136-43.8600E,181,29.361,34.1455
337,2007/9/1,4:59:00,33-09.5400N,136-43.8500E,181,29.463,34.1877
338,2007/9/1,5:00:00,33-09.2800N,136-43.8400E,181,29.484,34.2712
339,2007/9/1,5:01:00,33-09.0300N,136-43.8300E,181,29.538,34.2708
340,2007/9/1,5:02:00,33-08.7800N,136-43.8200E,182,29.582,34.2694
341,2007/9/1,5:03:00,33-08.5100N,136-43.8000E,185,29.619,34.2786
342,2007/9/1,5:04:00,33-08.2600N,136-43.7600E,186,29.623,34.2842
343,2007/9/1,5:05:00,33-08.0200N,136-43.7200E,187,29.64,34.2856
344,2007/9/1,5:06:00,33-07.7700N,136-43.6900E,187,29.673,34.2932
345,2007/9/1,5:07:00,33-07.5300N,136-43.6500E,187,29.686,34.3141
346,2007/9/1,5:08:00,33-07.2900N,136-43.6100E,187,29.726,34.3274
347,2007/9/1,5:09:00,33-07.0400N,136-43.5700E,187,29.74,34.3502
348,2007/9/1,5:10:00,33-06.8000N,136-43.5300E,187,29.748,34.3551
349,2007/9/1,5:11:00,33-06.5600N,136-43.4900E,188,29.753,34.3599
350,2007/9/1,5:12:00,33-06.3100N,136-43.4400E,188,29.754,34.3577
351,2007/9/1,5:13:00,33-06.0600N,136-43.4000E,188,29.74,34.3582
352,2007/9/1,5:14:00,33-05.8200N,136-43.3600E,188,29.729,34.3441
353,2007/9/1,5:15:00,33-05.5700N,136-43.3200E,188,29.692,34.3244
354,2007/9/1,5:16:00,33-05.3300N,136-43.2700E,188,29.674,34.3138
355,2007/9/1,5:17:00,33-05.0900N,136-43.2300E,188,29.677,34.3073
356,2007/9/1,5:18:00,33-04.8400N,136-43.1900E,188,29.693,34.3034
357,2007/9/1,5:19:00,33-04.6000N,136-43.1400E,188,29.711,34.3088
358,2007/9/1,5:20:00,33-04.3500N,136-43.1000E,187,29.737,34.3137
359,2007/9/1,5:21:00,33-04.1100N,136-43.0500E,191,29.755,34.3196
360,2007/9/1,5:22:00,33-03.8800N,136-42.9800E,194,29.769,34.3024
361,2007/9/1,5:23:00,33-03.6500N,136-42.9100E,195,29.782,34.334
362,2007/9/1,5:24:00,33-03.4200N,136-42.8400E,195,29.787,34.34
363,2007/9/1,5:25:00,33-03.1900N,136-42.7600E,195,29.796,34.3531
364,2007/9/1,5:26:00,33-02.9400N,136-42.6800E,195,29.799,34.3664
365,2007/9/1,5:27:00,33-02.7200N,136-42.6100E,195,29.79,34.374
366,2007/9/1,5:28:00,33-02.4900N,136-42.5300E,195,29.792,34.3754
367,2007/9/1,5:29:00,33-02.2600N,136-42.4500E,196,29.813,34.3755
368,2007/9/1,5:30:00,33-02.0300N,136-42.3800E,195,29.827,34.394
369,2007/9/1,5:31:00,33-01.8100N,136-42.3000E,196,29.831,34.4049
370,2007/9/1,5:32:00,33-01.5800N,136-42.2200E,195,29.851,34.4172
371,2007/9/1,5:33:00,33-01.3500N,136-42.1400E,195,29.862,34.4225
372,2007/9/1,5:34:00,33-01.1200N,136-42.0600E,195,29.862,34.4309
373,2007/9/1,5:35:00,33-00.9000N,136-41.9900E,195,29.871,34.437
374,2007/9/1,5:36:00,33-00.6700N,136-41.9100E,196,29.875,34.4371
375,2007/9/1,5:37:00,33-00.4400N,136-41.8300E,196,29.877,34.4468
376,2007/9/1,5:38:00,33-00.2100N,136-41.7500E,196,29.845,34.4537
377,2007/9/1,5:39:00,32-59.9800N,136-41.6800E,195,29.789,34.452
378,2007/9/1,5:40:00,32-59.7600N,136-41.6000E,196,29.754,34.4204
379,2007/9/1,5:41:00,32-59.5300N,136-41.5200E,195,29.738,34.398
380,2007/9/1,5:42:00,32-59.3000N,136-41.4400E,196,29.728,34.3825
381,2007/9/1,5:43:00,32-59.0700N,136-41.3700E,196,29.72,34.3724
382,2007/9/1,5:44:00,32-58.8500N,136-41.2900E,196,29.728,34.3643
383,2007/9/1,5:45:00,32-58.6200N,136-41.2100E,196,29.726,34.3542
384,2007/9/1,5:46:00,32-58.4000N,136-41.1300E,196,29.737,34.3572
385,2007/9/1,5:47:00,32-58.1700N,136-41.0500E,196,29.74,34.353
386,2007/9/1,5:48:00,32-57.9300N,136-40.9600E,197,29.754,34.3449